When you browse on this site, cookies collect data to enhance your experience and personalize the content and advertising you see.
Visit our Privacy Policy to learn more. By continuing to use the site, you agree to this use of cookies and data.
  • In Hungary
  • List of Countries
  • For 7 days
  • Water Temperature
  • Weather Map
  • News
  • Weather Widgets
  • user-avatar
    Login

    Hourly Weather Kalinino

    Today, 18 October, Friday

    Time Temperature Precipitation Wind Pressure Humidity
    00:00 +6°C° 0 mm 4 mps 760 mmHg 53%
    01:00 +6°C° 0 mm 4 mps 760 mmHg 55%
    02:00 +7°C° 0 mm 3 mps 759 mmHg 57%
    03:00 +5°C° 0 mm 3 mps 759 mmHg 58%
    04:00 +5°C° 0 mm 3 mps 759 mmHg 60%
    05:00 +5°C° 0 mm 3 mps 758 mmHg 61%
    06:00 +5°C° 0 mm 3 mps 758 mmHg 62%
    07:00 +6°C° 0 mm 4 mps 758 mmHg 59%
    08:00 +8°C° 0 mm 4 mps 758 mmHg 57%
    09:00 +10°C° 0 mm 4 mps 757 mmHg 54%
    10:00 +12°C° 0 mm 5 mps 757 mmHg 53%
    11:00 +13°C° 0 mm 5 mps 757 mmHg 51%
    12:00 +15°C° 0 mm 5 mps 756 mmHg 50%
    13:00 +15°C° 0 mm 5 mps 756 mmHg 50%
    14:00 +16°C° 0 mm 5 mps 756 mmHg 50%
    15:00 +18°C° 0 mm 4 mps 755 mmHg 50%
    16:00 +15°C° 0 mm 4 mps 755 mmHg 55%
    17:00 +14°C° 0 mm 3 mps 755 mmHg 61%
    18:00 +13°C° 0 mm 3 mps 755 mmHg 66%
    19:00 +12°C° 0 mm 3 mps 755 mmHg 68%
    20:00 +12°C° 0 mm 3 mps 755 mmHg 70%
    21:00 +13°C° 0 mm 2 mps 755 mmHg 72%
    22:00 +12°C° 0 mm 2 mps 755 mmHg 75%
    23:00 +12°C° 0 mm 2 mps 755 mmHg 78%

    Tomorrow, 19 October, Saturday

    Time Temperature Precipitation Wind Pressure Humidity
    00:00 +12°C° 0 mm 2 mps 755 mmHg 81%
    01:00 +10°C° 0 mm 2 mps 755 mmHg 84%
    02:00 +10°C° 0 mm 2 mps 755 mmHg 86%
    03:00 +11°C° 0 mm 1 mps 756 mmHg 88%
    04:00 +11°C° 0 mm 1 mps 756 mmHg 89%
    05:00 +11°C° 0 mm 1 mps 756 mmHg 89%
    06:00 +10°C° 0 mm 1 mps 756 mmHg 90%
    07:00 +12°C° 0 mm 1 mps 756 mmHg 85%
    08:00 +13°C° 0 mm 1 mps 757 mmHg 80%
    09:00 +14°C° 0 mm 1 mps 757 mmHg 76%
    10:00 +15°C° 0 mm 2 mps 757 mmHg 69%
    11:00 +16°C° 0 mm 2 mps 757 mmHg 62%
    12:00 +17°C° 0 mm 2 mps 757 mmHg 56%
    13:00 +17°C° 0 mm 2 mps 757 mmHg 56%
    14:00 +17°C° 0 mm 2 mps 757 mmHg 57%
    15:00 +17°C° 0 mm 2 mps 757 mmHg 58%
    16:00 +16°C° 0 mm 2 mps 758 mmHg 61%
    17:00 +15°C° 0 mm 2 mps 758 mmHg 65%
    18:00 +14°C° 0 mm 2 mps 758 mmHg 68%
    19:00 +14°C° 0 mm 2 mps 759 mmHg 68%
    20:00 +14°C° 0 mm 2 mps 759 mmHg 68%
    21:00 +14°C° 0 mm 2 mps 759 mmHg 68%
    22:00 +13°C° 0 mm 2 mps 759 mmHg 69%
    23:00 +13°C° 0 mm 2 mps 760 mmHg 70%

    Day after tomorrow, 20 October, Sunday

    Time Temperature Precipitation Wind Pressure Humidity
    00:00 +13°C° 0 mm 2 mps 760 mmHg 71%
    01:00 +13°C° 0 mm 2 mps 760 mmHg 74%
    02:00 +12°C° 0 mm 2 mps 760 mmHg 77%
    03:00 +12°C° 0 mm 2 mps 760 mmHg 80%
    04:00 +12°C° 0 mm 2 mps 761 mmHg 80%
    05:00 +12°C° 0 mm 2 mps 761 mmHg 81%
    06:00 +10°C° 0 mm 3 mps 761 mmHg 81%
    07:00 +12°C° 0 mm 2 mps 761 mmHg 80%
    08:00 +12°C° 0 mm 2 mps 762 mmHg 80%
    09:00 +12°C° 0 mm 2 mps 762 mmHg 79%
    10:00 +13°C° 0 mm 2 mps 762 mmHg 75%
    11:00 +13°C° 0 mm 2 mps 762 mmHg 71%
    12:00 +14°C° 0 mm 2 mps 762 mmHg 67%
    13:00 +14°C° 0 mm 2 mps 762 mmHg 66%
    14:00 +14°C° 0 mm 1 mps 762 mmHg 64%
    15:00 +15°C° 0 mm 1 mps 762 mmHg 63%
    16:00 +14°C° 0 mm 1 mps 762 mmHg 67%
    17:00 +13°C° 0 mm 1 mps 762 mmHg 71%
    18:00 +12°C° 0 mm 1 mps 762 mmHg 75%
    19:00 +11°C° 0 mm 1 mps 762 mmHg 77%
    20:00 +11°C° 0 mm 1 mps 762 mmHg 79%
    21:00 +10°C° 0 mm 1 mps 763 mmHg 81%
    22:00 +10°C° 0 mm 1 mps 763 mmHg 82%
    23:00 +10°C° 0 mm 1 mps 762 mmHg 83%

    21 October, Monday

    Time Temperature Precipitation Wind Pressure Humidity
    00:00 +10°C° 0 mm 1 mps 762 mmHg 84%
    01:00 +9°C° 0 mm 1 mps 762 mmHg 85%
    02:00 +9°C° 0 mm 1 mps 762 mmHg 85%
    03:00 +9°C° 0 mm 1 mps 763 mmHg 86%
    04:00 +9°C° 0 mm 1 mps 763 mmHg 86%
    05:00 +9°C° 0 mm 1 mps 763 mmHg 86%
    06:00 +9°C° 0 mm 1 mps 763 mmHg 86%
    07:00 +10°C° 0 mm 1 mps 763 mmHg 81%
    08:00 +11°C° 0 mm 1 mps 763 mmHg 76%
    09:00 +12°C° 0 mm 1 mps 763 mmHg 71%
    10:00 +13°C° 0 mm 2 mps 763 mmHg 65%
    11:00 +14°C° 0 mm 2 mps 763 mmHg 59%
    12:00 +16°C° 0 mm 2 mps 763 mmHg 54%
    13:00 +16°C° 0 mm 2 mps 763 mmHg 53%
    14:00 +16°C° 0 mm 2 mps 762 mmHg 53%
    15:00 +16°C° 0 mm 2 mps 762 mmHg 52%
    16:00 +15°C° 0 mm 2 mps 762 mmHg 56%
    17:00 +14°C° 0 mm 2 mps 762 mmHg 59%
    18:00 +13°C° 0 mm 2 mps 762 mmHg 63%
    19:00 +12°C° 0 mm 2 mps 762 mmHg 64%
    20:00 +12°C° 0 mm 2 mps 761 mmHg 65%
    21:00 +10°C° 0 mm 3 mps 761 mmHg 67%
    22:00 +10°C° 0 mm 3 mps 761 mmHg 68%
    23:00 +10°C° 0 mm 3 mps 761 mmHg 69%

    22 October, Tuesday

    Time Temperature Precipitation Wind Pressure Humidity
    00:00 +9°C° 0 mm 3 mps 760 mmHg 71%
    01:00 +9°C° 0 mm 3 mps 760 mmHg 73%
    02:00 +9°C° 0 mm 3 mps 760 mmHg 75%
    03:00 +8°C° 0 mm 3 mps 760 mmHg 76%
    04:00 +8°C° 0 mm 3 mps 759 mmHg 78%
    05:00 +8°C° 0 mm 3 mps 759 mmHg 79%
    06:00 +8°C° 0 mm 3 mps 759 mmHg 80%
    07:00 +8°C° 0 mm 4 mps 759 mmHg 74%
    08:00 +10°C° 0 mm 4 mps 759 mmHg 68%
    09:00 +10°C° 0 mm 5 mps 758 mmHg 62%
    10:00 +13°C° 0 mm 6 mps 758 mmHg 58%
    11:00 +14°C° 0 mm 6 mps 757 mmHg 54%
    12:00 +15°C° 0 mm 7 mps 757 mmHg 49%
    13:00 +15°C° 0 mm 7 mps 756 mmHg 49%
    14:00 +16°C° 0 mm 7 mps 756 mmHg 49%
    15:00 +16°C° 0 mm 7 mps 755 mmHg 48%
    16:00 +15°C° 0 mm 6 mps 755 mmHg 52%
    17:00 +14°C° 0 mm 6 mps 755 mmHg 55%
    18:00 +13°C° 0 mm 5 mps 754 mmHg 59%
    19:00 +12°C° 0 mm 5 mps 754 mmHg 61%
    20:00 +12°C° 0 mm 4 mps 754 mmHg 64%
    21:00 +12°C° 0 mm 4 mps 754 mmHg 66%
    22:00 +12°C° 0.1 mm 4 mps 754 mmHg 68%
    23:00 +12°C° 0.1 mm 3 mps 754 mmHg 70%

    23 October, Wednesday

    Time Temperature Precipitation Wind Pressure Humidity
    00:00 +12°C° 0.1 mm 3 mps 754 mmHg 71%
    01:00 +12°C° 0.4 mm 3 mps 754 mmHg 78%
    02:00 +12°C° 0.4 mm 2 mps 754 mmHg 84%
    03:00 +12°C° 0.4 mm 2 mps 755 mmHg 90%
    04:00 +11°C° 0 mm 3 mps 755 mmHg 88%
    05:00 +11°C° 0 mm 4 mps 756 mmHg 86%
    06:00 +10°C° 0 mm 5 mps 756 mmHg 84%
    07:00 +10°C° 0 mm 5 mps 757 mmHg 79%
    08:00 +10°C° 0 mm 5 mps 757 mmHg 73%
    09:00 +10°C° 0 mm 5 mps 758 mmHg 67%
    10:00 +12°C° 0 mm 5 mps 759 mmHg 63%
    11:00 +12°C° 0 mm 4 mps 759 mmHg 58%
    12:00 +13°C° 0 mm 4 mps 759 mmHg 54%
    13:00 +13°C° 0 mm 4 mps 760 mmHg 53%
    14:00 +13°C° 0 mm 3 mps 760 mmHg 52%
    15:00 +13°C° 0 mm 3 mps 760 mmHg 51%
    16:00 +11°C° 0 mm 3 mps 760 mmHg 54%
    17:00 +10°C° 0 mm 3 mps 761 mmHg 56%
    18:00 +9°C° 0 mm 3 mps 761 mmHg 59%
    19:00 +8°C° 0 mm 2 mps 761 mmHg 59%
    20:00 +8°C° 0 mm 2 mps 761 mmHg 60%
    21:00 +7°C° 0 mm 2 mps 762 mmHg 61%
    22:00 +8°C° 0 mm 1 mps 762 mmHg 62%
    23:00 +7°C° 0 mm 1 mps 762 mmHg 64%
    Show more